全球星 M091星 (GLOBALSTAR M091)

导读 | 豆包AI

GLOBALSTAR M091(全球星M091)是由全球星公司运营的低轨移动通信卫星,隶属于美国全球星卫星通信系统,该系统可向全球提供数字语音、数据传输、短信传真及跨网漫游等移动通信服务,且能与地面现有电信网络兼容。 这颗卫星于2011年7月13日发射,国际标识为2011-033C,目录编号37741,目前仍被持续观测,为全球移动通信覆盖提供空间段支撑。

基本信息
目录编号:
37741
目录名称:
GLOBALSTAR M091
国际标识:
2011-033C
轨道中心:
EARTH
卫星名称:
全球星 M091星
卫星全名:
全球星 M091星 (GLOBALSTAR M091)
卫星状态:
在轨 (已飞行5358 天)
发射日期:
2011-07-13 UTC
国别 :
(GLOB)
星等 :
--
轨道信息
数据来源 国际轨道数据 AOE轨道数据
星历时间 2026-03-13T15:18:29+0800
19小时前
查看轨道信息
2026-03-14T05:00:00+0800
6小时前
查看轨道信息
半长轴 7791.725km 7791.726km
偏心率 0.0000792 0.0000805
轨道倾角 51.999° 51.999°
近地点辐角 107.564° 100.242°
升交点赤经 173.823° 172.087°
平近点角 286.953° 7.989°
近地点 1412.97km 1412.961km
远地点 1414.206km 1414.217km
周期 114.080分钟 114.080分钟
每日圈数 12.622703 12.622701
详细信息
固有亮度:
5
最大亮度:
7.2
平衡模式:
三轴稳定
覆盖范围:
全球
运营商:
全球星公司
运营商所在国:
美国
使用方式:
暂无
卫星简介
全球星星座由48颗卫星加8颗备份星组成。这些卫星分布在8个倾角为52度的圆形轨道平面上,每个轨道平面6颗卫星,另有1 颗备用星。轨道高度约为1414km,传输时延和处理时延小于300ms,整个系统的覆盖区为南北纬70度以内的地区。该卫星已退役。
2D轨道图
3D轨道图
轨道高度分析图
轨道倾角分析图
轨道综合分析图
查看轨道综合分析图